Orbital Elements at Epoch 2459000.5 (2020-May-31.0) TDB
Reference: JPL 19 (heliocentric ecliptic J2000)
Element | Value | Uncertainty (1-sigma) | Units |
e | .1229551855536972 | 3.5242e-08 | |
a | 2.296955644920665 | 6.3022e-09 | au |
q | 2.014533037390833 | 8.0757e-08 | au |
i | 1.876699106606407 | 3.7744e-06 | deg |
node | 249.1311247180419 | 0.00011296 | deg |
peri | 166.3256961502863 | 0.00011425 | deg |
M | 54.70861033583473 | 1.5973e-05 | deg |
tp | 2458807.267344259544 (2019-Nov-19.76734426) | 5.6323e-05 | TDB |
period | 1271.53213433022 3.48 | 5.2331e-06 1.433e-08 | d yr |
n | .2831230059235822 | 1.1652e-09 | deg/d |
Q | 2.579378252450498 | 7.0771e-09 | au |
|
| | Orbit Determination Parameters
Additional Information
|